#timestamp,LO_Frequency,Hit 
1500004815.7,286047113.8,N
1500004835.5,286047114.2,N
1500004855.3,286047113.4,N
1500004875.2,286047113.5,N
1500004895.0,286047113.7,N
1500004895.9,286047113.7,N
1500004915.7,286047115.5,N
1500004935.6,286047115.1,N
1500004955.4,286047114.2,N
1500004975.2,286047115.9,N
1500004995.1,286047113.8,N
1500004996.0,286047113.8,N
1500005015.8,286047117.9,N
1500005035.6,286047117.9,N
1500005055.1,286047117.1,N
1500005075.9,286047119.6,N
1500005095.8,286047116.5,N
1500005115.6,286047118.9,N
1500005135.4,286047117.4,N
1500005155.2,286047116.9,N
1500005175.0,286047117.0,N
1500005175.9,286047117.0,N
1500005195.8,286047116.5,N
1500005215.6,286047118.1,N
1500005235.4,286047118.4,N
1500005255.2,286047118.8,N
1500005275.1,286047120.7,N
1500005276.0,286047120.7,N
1500005295.8,286047120.5,N
1500005315.6,286047121.2,N
1500005335.5,286047119.1,N
1500005355.3,286047116.6,N
1500005375.1,286047121.2,N
1500005395.9,286047120.2,N
1500005415.7,286047120.9,N
1500005435.5,286047119.9,N
1500005455.4,286047119.7,N
1500005475.2,286047122.5,N
1500005495.0,286047121.5,N
1500005495.9,286047121.5,N
1500005515.8,286047121.9,N
1500005535.6,286047124.4,N
1500005555.4,286047120.5,N
1500005575.3,286047118.3,N
1500005595.1,286047118.5,N
1500005596.0,286047118.5,N
1500005615.8,286047122.6,N
1500005635.7,286047122.1,N
1500005655.5,286047121.5,N
1500005675.3,286047121.9,N
1500005695.2,286047122.5,N
1500005715.9,286047124.0,N
1500005735.7,286047121.4,N
1500005755.6,286047123.2,N
1500005775.4,286047125.6,N
1500005795.2,286047122.6,N
1500005815.0,286047118.9,N
1500005815.9,286047118.9,N
1500005835.8,286047118.7,N
1500005855.6,286047117.1,N
1500005875.4,286047119.6,N
1500005895.3,286047118.7,N
1500005915.1,286047122.4,N
1500005935.8,286047122.7,N
1500005955.7,286047118.5,N
1500005975.5,286047116.5,N
1500005995.3,286047118.4,N
1500006015.2,286047122.3,N
1500006035.9,286047121.7,N
1500006055.7,286047121.7,N
1500006075.6,286047121.5,N
1500006095.4,286047119.7,N
1500006115.2,286047121.5,N
1500006135.1,286047124.0,N
1500006136.0,286047124.0,N
1500006155.8,286047121.3,N
1500006175.6,286047123.3,N
1500006195.4,286047125.8,N
1500006215.3,286047125.3,N
1500006235.1,286047124.8,N
1500006255.8,286047123.7,N
1500006275.7,286047125.4,N
1500006295.5,286047124.7,N
1500006315.3,286047127.1,N
1500006335.2,286047126.1,N
1500006355.0,286047127.4,N
1500006355.9,286047127.4,N
1500006375.7,286047126.1,N
1500006395.6,286047127.4,N
1500006415.4,286047123.3,N
1500006435.2,286047124.5,N
1500006455.1,286047126.3,N
1500006456.0,286047126.3,N
1500006475.8,286047128.8,N
1500006495.6,286047126.2,N
1500006515.5,286047126.7,N
1500006535.3,286047129.2,N
1500006555.1,286047127.6,N
1500006575.9,286047129.1,N
1500006595.7,286047129.9,N
1500006615.5,286047131.6,N
1500006635.4,286047129.9,N
1500006655.2,286047128.0,N
1500006675.0,286047130.8,N
1500006675.9,286047130.8,N
1500006695.8,286047127.9,N
1500006715.6,286047128.8,N
1500006735.4,286047127.8,N
1500006755.2,286047131.7,N
1500006775.1,286047131.7,N
1500006776.0,286047131.7,N
1500006795.8,286047132.2,N
1500006815.6,286047130.3,N
1500006835.5,286047128.6,N
1500006855.3,286047128.8,N
1500006875.1,286047131.4,N
1500006895.9,286047131.6,N
1500006915.7,286047131.9,N
1500006935.5,286047129.4,N
1500006955.4,286047130.6,N
1500006975.2,286047129.5,N
1500006995.0,286047132.2,N
1500006995.9,286047132.2,N
1500007015.8,286047129.7,N
1500007035.6,286047131.6,N
1500007055.4,286047136.5,N
1500007075.3,286047138.4,N
1500007095.1,286047137.9,N
1500007096.0,286047137.9,N
1500007115.8,286047138.3,N
1500007135.7,286047136.6,N
1500007155.5,286047134.4,N
1500007175.3,286047132.8,N
1500007195.2,286047131.4,N
1500007215.9,286047132.3,N
1500007235.7,286047129.3,N
1500007255.5,286047133.8,N
1500007275.4,286047133.2,N
1500007295.2,286047133.1,N
1500007315.0,286047132.0,N
1500007315.9,286047132.0,N
1500007335.8,286047129.8,N
1500007355.6,286047130.9,N
1500007375.4,286047131.0,N
1500007395.3,286047132.7,N
1500007415.1,286047133.0,N
1500007435.8,286047131.4,N
1500007455.7,286047130.5,N
1500007475.5,286047132.5,N
1500007495.3,286047133.1,N
1500007515.2,286047134.3,N
1500007535.9,286047133.0,N
1500007555.7,286047135.5,N
1500007575.6,286047131.2,N
1500007595.4,286047129.3,N
1500007615.2,286047130.7,N
1500007635.0,286047131.2,N
1500007636.0,286047131.2,N
1500007655.8,286047132.6,N
1500007675.6,286047133.3,N
1500007695.4,286047132.2,N
1500007715.3,286047131.2,N
1500007735.1,286047132.3,N
1500007755.8,286047129.4,N
1500007775.7,286047129.5,N
1500007795.5,286047129.5,N
1500007815.3,286047129.3,N
1500007835.2,286047133.3,N
1500007855.9,286047134.0,N
1500007875.7,286047130.1,N
1500007895.6,286047130.1,N
1500007915.4,286047129.3,N
1500007935.2,286047131.7,N
1500007955.1,286047131.9,N
1500007956.0,286047131.9,N
1500007975.8,286047128.0,N
1500007995.6,286047127.5,N
1500008015.4,286047125.2,N
1500008035.3,286047126.9,N
1500008055.1,286047127.1,N
1500008075.8,286047124.8,N
1500008095.7,286047127.9,N
1500008115.5,286047128.7,N
1500008135.3,286047126.5,N
1500008155.2,286047125.0,N
1500008175.0,286047127.6,N
1500008175.9,286047127.6,N
1500008195.7,286047128.8,N
1500008215.6,286047128.8,N
1500008235.4,286047128.0,N
1500008255.2,286047129.0,N
1500008275.1,286047129.2,N
1500008276.0,286047129.2,N
1500008295.8,286047127.0,N
1500008315.6,286047124.5,N
1500008335.5,286047127.3,N
1500008355.3,286047126.5,N
1500008375.1,286047124.5,N
1500008395.9,286047125.1,N
